Regional Weather Roundup
Issued by NWS

Home | Current Version | Previous Version | Graphics & Text | Print | Product List | Glossary On
Versions: 1 2 3 4 5 6 7 8 9 10 11 12 13 14 15 16 17 18 19 20 21 22 23 24 25 26 27 28 29 30 31 32 33 34 35 36 37 38 39 40 41 42 43 44 45 46 47 48 49 50
000
ASUS43 KIND 062209
RWRIN

WEATHER ROUNDUP FOR INDIANA
NATIONAL WEATHER SERVICE INDIANAPOLIS IN
500 PM EST FRI MAR 06 2015

NOTE: "FAIR" INDICATES FEW OR NO CLOUDS BELOW 12,000 FEET WITH NO
SIGNIFICANT WEATHER AND/OR OBSTRUCTIONS TO VISIBILITY.

* - STATION DOES NOT REPORT WEATHER SUCH AS PRECIPITATION OR FOG.

+ - STATION NOT QUALITY CONTROLLED BY THE NATIONAL WEATHER SERVICE.
    USE DATA WITH CAUTION...ESPECIALLY DEWPOINT AND RELATIVE
    HUMIDITY OBSERVATIONS.

INZ001>003-010>013-019-020-062300-
NORTHWEST INDIANA

CITY           SKY/WX    TMP DP  RH WIND       PRES   REMARKS
GARY /AIRPORT/ MOSUNNY   27   7  43 S14G29    30.25S WCI  15
KNOX *+          N/A     27  -4  26 S15       30.25F WCI  15
LA PORTE +     SUNNY     25  11  55 S12       30.26S WCI  15
MICHIGAN CITY+ SUNNY     27   5  39 S16G26    30.24F WCI  14
MONTICELLO +   SUNNY     28  11  49 S13       30.26F WCI  17
RENSSELAER +   SUNNY     28  16  59 S13G18    30.27S WCI  18
VALPARAISO     SUNNY     24  11  57 S14       30.25S WCI  12

$$

LMZ046-743>745-062300-
SOUTHERN LAKE MICHIGAN

STATION/POSITION TIME  TEMP WIND        PRES
                       AIR  DIR/SP/G
                 (UTC) (F)  (DEG/KT/KT) (MB)
MICHIGAN CITY    2200   24  160/ 16/ 20   N/A

$$

INZ004-005-014>016-021>024-062300-
NORTH CENTRAL INDIANA

CITY           SKY/WX    TMP DP  RH WIND       PRES   REMARKS
GOSHEN         CLOUDY    24   8  50 S17G25    30.26F WCI  11
LOGANSPORT +   SUNNY     27  12  54 S12       30.29F WCI  16
PERU/GRISSOM   SUNNY     26  11  52 S17       30.26F WCI  14
ROCHESTER +    SUNNY     28  14  54 S9        30.27F WCI  20
SOUTH BEND     CLOUDY    25   9  50 MISG      30.25F
WARSAW +       SUNNY     27   9  46 SW9G22    30.27F WCI  17

$$

INZ006>009-017-018-025>027-062300-
NORTHEAST INDIANA

CITY           SKY/WX    TMP DP  RH WIND       PRES   REMARKS
ANGOLA *+      MOSUNNY   21   5  49 SW14      30.25F WCI   8
AUBURN +       SUNNY     27  10  50 S10G16    30.29F WCI  17
FORT WAYNE     PTSUNNY   23  12  62 S12       30.31F WCI  12
HUNTINGTON +   CLOUDY    25   7  46 S8G18     30.30F WCI  16

$$

INZ028-029-035-036-043>045-051>053-062300-
WEST CENTRAL INDIANA

CITY           SKY/WX    TMP DP  RH WIND       PRES   REMARKS
CRAWFORDSVL +  SUNNY     25   6  44 S16G23    30.30F WCI  13
GREENCASTLE +  SUNNY     28   3  34 S12G20    30.33F WCI  18
LAFAYETTE      SUNNY     27  11  51 S12G21    30.29F WCI  17
TERRE HAUTE    SUNNY     27  11  51 S16       30.35F WCI  15

$$

INZ030>032-037>040-046>048-054>057-064-065-062300-
CENTRAL INDIANA

CITY           SKY/WX    TMP DP  RH WIND       PRES   REMARKS
CP ATTERBURY + SUNNY     32  12  43 SW8       30.37F WCI  25
FRANKFORT +    SUNNY     28  13  54 S12       30.30F WCI  18
INDIANAPOLIS   MOSUNNY   30   7  37 S20       30.32F WCI  17
-EAGLE CREEK   PTSUNNY   31   7  36 S13G20    30.31F WCI  21
KOKOMO *+        N/A    N/A N/A N/A MISG        N/A
MARION +       MOSUNNY   25  13  59 S13G20    30.31F WCI  14
MT COMFORT *+  SUNNY     28   5  37 S12       30.34F WCI  18
SHELBYVILLE    SUNNY     28  13  53 S13       30.35F WCI  17
ZIONSVILLE +   MOSUNNY   30   4  33 S17       30.30F WCI  18

$$

INZ033-034-041-042-049-050-058-059-062300-
EAST CENTRAL INDIANA

CITY           SKY/WX    TMP DP  RH WIND       PRES   REMARKS
MUNCIE         CLOUDY    25  11  55 S12G20    30.32F WCI  14

$$

INZ060-061-067>069-081>083-085>088-062300-
SOUTHWEST INDIANA

CITY           SKY/WX    TMP DP  RH WIND       PRES   REMARKS
EVANSVILLE     SUNNY     30   7  37 S14       30.44F WCI  19
HUNTINGBURG *+ SUNNY     27   9  46 S9        30.44F WCI  17
WASHINGTON +   SUNNY     28   8  42 S13       30.40F WCI  18

$$

INZ062-063-066-070>080-084-089>092-062300-
SOUTH CENTRAL AND SOUTHEAST INDIANA

CITY           SKY/WX    TMP DP  RH WIND       PRES   REMARKS
BEDFORD +      SUNNY     32   5  32 S12       30.39F WCI  23
BLOOMINGTON    SUNNY     30   7  37 S13       30.36F WCI  20
NORTH VERNON + SUNNY     30  10  43 S12       30.40F WCI  21
SEYMOUR +      SUNNY     30  14  51 S10       30.40F WCI  21

$$




USA.gov is the U.S. government's official web portal to all federal, state and local government web resources and services.